| time (UTC) | temp C | wind direction | speed KPH | gust KPH | rain 1hr cm | rain 24hr cm | rain mn cm | humidity % | barometer mb |
| 20260506090307 | 3 | 273 | 3.2 | 8.0 | 0.00 | 0.00 | 0.00 | 77 | 1008.8 |
| 20260506080807 | 3 | 277 | 4.8 | 8.0 | 0.00 | 0.00 | 0.00 | 76 | 1008.0 |
| 20260506070814 | 5 | 281 | 9.7 | 11.3 | 0.00 | 0.00 | 0.00 | 70 | 1007.4 |
| 20260506070308 | 5 | 269 | 8.0 | 12.9 | 0.00 | 0.00 | 0.00 | 68 | 1007.3 |
| 20260506060806 | 6 | 270 | 8.0 | 9.7 | 0.00 | 0.00 | 0.00 | 65 | 1006.9 |
| 20260506060306 | 7 | 127 | 1.6 | 11.3 | 0.00 | 0.00 | 0.00 | 64 | 1006.8 |
| 20260506050307 | 8 | 265 | 3.2 | 9.7 | 0.00 | 0.00 | 0.00 | 61 | 1006.1 |
| 20260506040806 | 10 | 336 | 6.4 | 9.7 | 0.00 | 0.00 | 0.00 | 57 | 1005.5 |
| 20260506040307 | 10 | 284 | 8.0 | 11.3 | 0.00 | 0.00 | 0.00 | 57 | 1005.4 |
| 20260506030806 | 11 | 293 | 4.8 | 9.7 | 0.00 | 0.00 | 0.00 | 54 | 1005.0 |
| 20260506030308 | 11 | 333 | 3.2 | 11.3 | 0.00 | 0.00 | 0.00 | 54 | 1005.0 |
| 20260506020807 | 12 | 279 | 1.6 | 4.8 | 0.00 | 0.00 | 0.00 | 52 | 1004.7 |
| 20260506010806 | 13 | 293 | 3.2 | 11.3 | 0.00 | 0.00 | 0.00 | 50 | 1003.7 |
| 20260506010307 | 13 | 15 | 3.2 | 16.1 | 0.00 | 0.00 | 0.00 | 50 | 1003.7 |
| 20260506000806 | 15 | 74 | 3.2 | 11.3 | 0.00 | 0.00 | 0.00 | 47 | 1003.9 |
| 20260506000306 | 15 | 46 | 4.8 | 12.9 | 0.00 | 0.00 | 0.00 | 47 | 1003.8 |
| 20260505230307 | 15 | 52 | 1.6 | 12.9 | 0.00 | 0.00 | 0.00 | 46 | 1003.6 |
| 20260505220806 | 15 | 36 | 3.2 | 12.9 | 0.00 | 0.00 | 0.00 | 44 | 1003.5 |
| 20260505220306 | 15 | 347 | 4.8 | 12.9 | 0.00 | 0.00 | 0.00 | 44 | 1003.4 |
| 20260505210807 | 16 | 15 | 3.2 | 9.7 | 0.00 | 0.00 | 0.00 | 45 | 1003.1 |
| 20260505210307 | 16 | 87 | 1.6 | 14.5 | 0.00 | 0.00 | 0.00 | 44 | 1003.0 |
| 20260505200806 | 15 | 334 | 4.8 | 9.7 | 0.00 | 0.00 | 0.00 | 56 | 1002.9 |
| 20260505200306 | 15 | 60 | 3.2 | 12.9 | 0.00 | 0.00 | 0.00 | 57 | 1002.8 |
| 20260505180806 | 13 | 305 | 3.2 | 8.0 | 0.00 | 0.00 | 0.00 | 60 | 1003.5 |
| 20260505180308 | 12 | 350 | 1.6 | 9.7 | 0.00 | 0.00 | 0.00 | 60 | 1003.5 |
| 20260505170807 | 11 | 52 | 1.6 | 8.0 | 0.00 | 0.00 | 0.00 | 62 | 1003.5 |
| 20260505170307 | 11 | 24 | 1.6 | 11.3 | 0.00 | 0.00 | 0.00 | 61 | 1003.5 |
| 20260505160805 | 9 | 297 | 4.8 | 9.7 | 0.00 | 0.00 | 0.00 | 66 | 1003.6 |
| 20260505160306 | 9 | 334 | 4.8 | 11.3 | 0.00 | 0.00 | 0.00 | 66 | 1003.7 |
| 20260505150806 | 8 | 23 | 3.2 | 8.0 | 0.00 | 0.00 | 0.00 | 66 | 1004.1 |
| 20260505150307 | 8 | 23 | 3.2 | 9.7 | 0.00 | 0.00 | 0.00 | 65 | 1004.1 |
| 20260505130306 | 8 | 36 | 3.2 | 11.3 | 0.00 | 0.00 | 0.00 | 66 | 1004.2 |
| 20260505120806 | 8 | 54 | 4.8 | 9.7 | 0.00 | 0.00 | 0.00 | 66 | 1005.1 |
| 20260505120307 | 8 | 14 | 3.2 | 11.3 | 0.00 | 0.00 | 0.00 | 66 | 1005.3 |
| 20260505110807 | 10 | 30 | 4.8 | 8.0 | 0.00 | 0.00 | 0.00 | 64 | 1005.9 |
| 20260505100807 | 10 | 298 | 4.8 | 12.9 | 0.00 | 0.00 | 0.00 | 62 | 1006.4 |
| 20260505100306 | 10 | 338 | 6.4 | 12.9 | 0.00 | 0.00 | 0.00 | 62 | 1006.4 |